[[{"header":{"parameterUnit":"m.s-1","parameterCategory":2,"la1":30.2991,"la2":30.254,"lo1":-89.0895,"lo2":-89.0444,"dy":0.0017,"dx":0.0017,"nx":28,"ny":28,"refTime":"2025-03-05T09:00:00:Z","depth":"0","parameterNumber":2,"parameterNumberName":"U-component_of_CURRENTS"},"data":[0,0,0,0,0,0,0,0,0,0,0,0,0,0,0,0,0,0,0,0,0,0,0,0,0,0,0,0,0,0,0,0,0,0,0,0,0,0,0,0,0,0,0,0,0,0,0,0,0,0,0,0,0,0,0,0,0,0,0.3969,0.397,0,0.4017,0.4017,0.4017,0.4003,0.4003,0.4002,0.4002,0.4002,0.4003,0.4003,0,0,0,0,0,0,0,0,0,0,0,0,0,0.3877,0.3878,0.3969,0.397,0.3971,0.4017,0.4017,0.4017,0.4004,0.4003,0.4002,0.4001,0.4002,0.4003,0.4003,0,0,0,0,0,0,0,0,0,0,0,0,0,0.3916,0.3879,0.3969,0.3973,0.3974,0.4017,0.4017,0.4017,0.4004,0.4003,0.4002,0.4001,0.4002,0.4002,0.4003,0.4026,0,0,0.4006,0.4006,0,0,0,0,0,0,0,0,0.3914,0.3919,0.3971,0.3973,0.3974,0.4007,0.3985,0.4019,0.4004,0.3988,0.4002,0.4001,0.4003,0.4003,0.4009,0.4027,0.4027,0.4006,0.4007,0.4007,0.4007,0,0,0,0,0,0,0,0.3911,0.3917,0.3984,0.3972,0.3974,0.3976,0.398,0.3991,0.3996,0.3989,0.3989,0.4002,0.4002,0.4008,0.4009,0.4027,0.4006,0.4007,0.4007,0.4008,0.411,0.4112,0,0,0,0,0,0,0.3914,0.3914,0.3982,0.3986,0.3946,0.3979,0.3983,0.3994,0.3997,0.3998,0.4002,0.4001,0.4007,0.4008,0.4009,0.4069,0.4007,0.4008,0.4008,0.4108,0.4111,0.4113,0,0,0,0,0,0,0.3912,0.392,0.398,0.3954,0.3963,0.3982,0.3994,0.3995,0.4006,0.4008,0.4007,0.4012,0.4007,0.4008,0.4038,0.4068,0.4008,0.4009,0.4106,0.4109,0.4112,0.4169,0,0,0,0,0,0,0.3909,0.3919,0.3928,0.3955,0.3964,0.4014,0.3995,0.3997,0.4017,0.4015,0.4016,0.4015,0.4006,0.4037,0.4039,0.4068,0.4009,0.4103,0.4107,0.4111,0.4164,0.4174,0.4182,0,0,0,0,0,0.3906,0.3921,0.3928,0.3936,0.3976,0.4016,0.4021,0.4028,0.4018,0.4031,0.4039,0.4015,0.4065,0.404,0.4042,0.4071,0.4101,0.4106,0.4111,0.416,0.4172,0.4182,0,0,0,0,0,0,0.388,0.3923,0.393,0.3956,0.3989,0.4015,0.4031,0.4036,0.4053,0.4051,0.4041,0.4042,0.4082,0.4075,0.4047,0.4116,0.408,0.4086,0.4117,0.4128,0.4137,0.4148,0.401,0,0,0,0,0,0.3883,0.3906,0.3947,0.3968,0.3987,0.4011,0.4027,0.4037,0.4058,0.4063,0.4067,0.4079,0.4106,0.4114,0.4132,0.4166,0.4182,0.4189,0.4198,0.4205,0.4218,0.4275,0.429,0.413,0.413,0.413,0,0,0.3875,0.3906,0.3916,0.3965,0.3989,0.4026,0.4017,0.4052,0.4082,0.4062,0.4098,0.4111,0.4124,0.4167,0.4184,0.4161,0.4263,0.4211,0.4217,0.4226,0.4282,0.4298,0.4311,0.4133,0.4132,0.4132,0,0,0.3877,0.3906,0.3927,0.3963,0.4014,0.404,0.4053,0.409,0.4106,0.4148,0.4149,0.4185,0.4208,0.4234,0.4248,0.432,0.4311,0.4321,0.4369,0.4425,0.4438,0.445,0.45,0.4516,0.4321,0.4321,0.4321,0,0.3863,0.3904,0.3939,0.3977,0.401,0.4048,0.4082,0.4116,0.4157,0.4182,0.4166,0.4241,0.4245,0.4317,0.4341,0.4339,0.4366,0.4322,0.4436,0.4448,0.4459,0.4507,0.4524,0.4325,0.4324,0.4324,0.4324,0,0.3885,0.3924,0.3945,0.4008,0.4047,0.4088,0.4144,0.4184,0.4207,0.4238,0.4309,0.4332,0.4374,0.4387,0.4383,0.4472,0.4465,0.4441,0.4404,0.4479,0.4525,0.4541,0.4329,0.4328,0.4327,0.4326,0,0,0.3826,0.3937,0.3941,0.3975,0.4069,0.4095,0.4172,0.4245,0.4303,0.4339,0.4411,0.4459,0.4472,0.4492,0.4503,0.4552,0.4652,0.4532,0.4534,0.4574,0.4781,0.4773,0.479,0.4646,0.4649,0.4652,0.4783,0,0.3829,0.3895,0.3959,0.4022,0.406,0.4138,0.421,0.4281,0.4351,0.4434,0.4478,0.4551,0.4514,0.4552,0.4594,0.465,0.4697,0.4619,0.4709,0.4712,0.469,0.4809,0.4746,0.4858,0.4799,0.4802,0.4804,0,0.3816,0.387,0.3926,0.4036,0.4061,0.4107,0.4229,0.4304,0.4441,0.4506,0.4587,0.4631,0.4727,0.468,0.4798,0.4751,0.477,0.48,0.4805,0.4789,0.4736,0.4774,0.489,0.4832,0.4829,0.4827,0.4825,0,0.3731,0.384,0.3881,0.3916,0.4049,0.4088,0.4165,0.4306,0.4392,0.4562,0.4639,0.4749,0.4815,0.4869,0.4917,0.4872,0.5045,0.4984,0.4995,0.4994,0.4955,0.4945,0.5018,0.5065,0.5064,0.5064,0.5064,0,0.3698,0.3728,0.3839,0.3858,0.3927,0.4031,0.4132,0.4247,0.4417,0.4528,0.4657,0.4773,0.4866,0.4962,0.4981,0.5059,0.5093,0.5042,0.5044,0.4974,0.4965,0.4921,0.4862,0.5069,0.5068,0.5067,0.5066,0,0.3594,0.367,0.372,0.3844,0.3885,0.3924,0.41,0.4179,0.4364,0.452,0.4579,0.4808,0.4966,0.5046,0.5173,0.5145,0.5112,0.5224,0.5138,0.5128,0.5058,0.5004,0.4834,0.4686,0.5271,0.5271,0.5272,0,0.355,0.3563,0.3676,0.3701,0.3754,0.3845,0.3915,0.4124,0.4227,0.4536,0.4597,0.483,0.4984,0.5194,0.5246,0.5324,0.5148,0.5269,0.5165,0.5088,0.5029,0.4764,0.4629,0.5141,0.5141,0.514,0.514,0,0.3467,0.3499,0.3541,0.3601,0.3656,0.3735,0.3855,0.3933,0.4184,0.4344,0.4576,0.4743,0.5017,0.5133,0.5269,0.5294,0.5074,0.5262,0.5213,0.4978,0.4663,0.451,0.5014,0.5137,0.5137,0.5138,0.5138,0.5138,0.3393,0.3396,0.3447,0.3491,0.3551,0.36,0.3622,0.3781,0.394,0.4162,0.4425,0.4642,0.4988,0.5211,0.5187,0.5196,0.504,0.5115,0.5072,0.4821,0.4619,0.512,0.5217,0.5217,0.5218,0.5219,0.5219,0,0.3295,0.3309,0.3341,0.3384,0.3384,0.3462,0.3558,0.3569,0.3686,0.399,0.4195,0.4581,0.4807,0.5017,0.52,0.5067,0.4767,0.4954,0.4597,0.4483,0.5009,0.4951,0.4958,0.4958,0.4958,0.4958,0.4958,0.4958,0.3246,0.3223,0.3239,0.3206,0.3223,0.3187,0.3197,0.3254,0.3428,0.3671,0.3911,0.4179,0.4725,0.5145,0.516,0.5014,0.4605,0.4432,0.4313,0.4779,0.479,0.48,0.4735,0.4696,0.4695,0.3641,0.3634,0.3628]},{"header":{"parameterUnit":"m.s-1","parameterCategory":2,"la1":30.2991,"la2":30.254,"lo1":-89.0895,"lo2":-89.0444,"dy":0.0017,"dx":0.0017,"nx":28,"ny":28,"refTime":"2025-03-05T09:00:00:Z","depth":"0","parameterNumber":3,"parameterNumberName":"V-component_of_CURRENTS"},"data":[0,0,0,0,0,0,0,0,0,0,0,0,0,0,0,0,0,0,0,0,0,0,0,0,0,0,0,0,0,0,0,0,0,0,0,0,0,0,0,0,0,0,0,0,0,0,0,0,0,0,0,0,0,0,0,0,0,0,0.0235,0.0234,0,0.0152,0.015,0.0149,0.0087,0.0087,0.0087,0.0086,-0.0033,-0.0036,-0.0039,0,0,0,0,0,0,0,0,0,0,0,0,0,0.0274,0.0274,0.0235,0.0234,0.0234,0.0152,0.015,0.0149,0.0087,0.0087,0.0087,0.0086,-0.0032,-0.0036,-0.0039,0,0,0,0,0,0,0,0,0,0,0,0,0,0.0228,0.0273,0.0235,0.0195,0.0191,0.0152,0.015,0.0149,0.0087,0.0087,0.0087,0.0086,-0.0031,-0.0035,-0.004,-0.0059,0,0,-0.0053,-0.0055,0,0,0,0,0,0,0,0,0.0231,0.0226,0.0202,0.0198,0.0193,0.0132,0.012,0.0079,0.0088,0.0124,0.0086,0.0086,0.0021,0.0012,-0.0006,-0.0064,-0.0069,-0.0054,-0.0056,-0.0058,-0.0059,0,0,0,0,0,0,0,0.0234,0.0229,0.0199,0.0201,0.0196,0.0158,0.0152,0.0112,0.0073,0.012,0.0116,0.0112,0.0018,-0.0002,-0.001,-0.0071,-0.0053,-0.0057,-0.006,-0.0062,-0.0145,-0.0144,0,0,0,0,0,0,0.0254,0.0232,0.0202,0.0197,0.0214,0.0159,0.0151,0.015,0.0074,0.0063,0.0112,0.0109,0.0006,-0.0004,-0.0014,-0.0016,-0.0058,-0.0062,-0.0065,-0.0145,-0.0145,-0.0144,0,0,0,0,0,0,0.0255,0.0252,0.0205,0.0215,0.0206,0.0159,0.0158,0.0148,0.0134,0.0069,0.0056,0.0109,0.0005,-0.0008,-0.0037,-0.0022,-0.0064,-0.0068,-0.0146,-0.0145,-0.0144,-0.0036,0,0,0,0,0,0,0.0257,0.0253,0.0258,0.0216,0.0207,0.0197,0.0158,0.0147,0.0133,0.0128,0.0061,0.0049,0.0004,-0.003,-0.0042,-0.0029,-0.0072,-0.0146,-0.0145,-0.0145,-0.004,-0.0031,-0.0024,0,0,0,0,0,0.0258,0.0276,0.0259,0.0255,0.0216,0.0199,0.0191,0.0152,0.0134,0.0136,0.0091,0.0052,-0.0034,-0.0033,-0.0047,-0.0035,-0.0147,-0.0146,-0.0145,-0.0043,-0.0033,-0.0024,0,0,0,0,0,0,0.0297,0.027,0.0251,0.0259,0.0236,0.019,0.0189,0.0162,0.0128,0.0123,0.0058,0.0044,0.0022,-0.0022,-0.002,-0.0058,-0.0097,-0.0099,-0.0016,-0.0007,0.0001,0.0029,-0.0075,0,0,0,0,0,0.0309,0.0311,0.0279,0.0284,0.0278,0.0234,0.0222,0.0199,0.0164,0.0148,0.0102,0.0053,0.0014,-0.0006,-0.0049,-0.0067,-0.0115,-0.007,-0.0062,-0.0055,-0.0042,-0.0102,-0.0098,-0.0141,-0.0141,-0.0141,0,0,0.0324,0.031,0.0311,0.0292,0.0269,0.0279,0.0225,0.0219,0.0225,0.0141,0.0133,0.0079,0.0015,-0.0004,-0.0018,-0.0037,-0.0068,-0.0054,-0.0047,-0.0038,-0.01,-0.0096,-0.0093,-0.014,-0.014,-0.014,0,0,0.0366,0.0346,0.0366,0.0357,0.0337,0.0313,0.0319,0.0281,0.0262,0.0246,0.0189,0.0149,0.0088,0.0049,0.002,0.0045,-0.0025,0.0027,0.0091,0.0033,0.0036,0.0038,-0.0014,-0.0018,0.0032,0.0032,0.0032,0,0.0386,0.0409,0.037,0.0391,0.0397,0.0339,0.0372,0.0345,0.0302,0.0296,0.026,0.0172,0.0116,0.0094,0.01,0.0065,0.002,0.0064,0.0045,0.0046,0.0046,-0.0009,-0.0014,0.0038,0.0037,0.0036,0.0036,0,0.0447,0.0466,0.0479,0.0489,0.0488,0.0505,0.0474,0.0464,0.0431,0.0401,0.0367,0.0281,0.0233,0.0203,0.0157,0.0138,0.0101,0.0063,0.0027,0.0057,-0.0003,-0.001,0.0045,0.0043,0.0042,0.004,0,0,0.0492,0.0519,0.0523,0.0555,0.0546,0.0557,0.0568,0.0566,0.0585,0.0513,0.052,0.0433,0.0379,0.0342,0.0271,0.0214,0.0173,0.0149,0.0144,0.0108,0.0047,0.0027,0.0016,0.013,0.0129,0.0128,0.0006,0,0.0554,0.0624,0.0616,0.0686,0.0725,0.0689,0.0707,0.0694,0.0667,0.0656,0.0554,0.0531,0.0435,0.0414,0.0342,0.0221,0.0159,0.021,0.0013,0.0008,-0.0005,0.0009,0.0048,-0.0058,-0.0002,-0.0003,-0.0004,0,0.0621,0.0662,0.0742,0.0799,0.0812,0.0838,0.0868,0.0885,0.0848,0.0825,0.077,0.0688,0.0602,0.0511,0.0316,0.0354,0.0216,0.0107,0.0099,0.004,-0.0026,-0.0083,-0.0074,-0.0308,-0.0016,-0.0015,-0.0014,0,0.0683,0.0755,0.0826,0.0845,0.0889,0.0915,0.0939,0.0933,0.0977,0.0938,0.095,0.0819,0.0767,0.0576,0.0352,0.0333,0.0131,0.0073,-0.0079,-0.0082,-0.0108,-0.0112,-0.0337,-0.0067,-0.0067,-0.0066,-0.0066,0,0.0756,0.0815,0.0862,0.0901,0.0998,0.0996,0.1091,0.109,0.1113,0.119,0.1047,0.1061,0.0781,0.063,0.0402,0.0152,0.0165,-0.006,-0.0112,-0.0069,-0.0068,-0.0321,-0.0487,-0.0071,-0.007,-0.0069,-0.0068,0,0.0813,0.0838,0.0933,0.0998,0.1031,0.1101,0.1213,0.1285,0.128,0.1373,0.1369,0.1245,0.1054,0.076,0.0457,0.0239,-0.0163,-0.0109,-0.0035,-0.0076,-0.0436,-0.0596,-0.0913,-0.1031,-0.0297,-0.0298,-0.0299,0,0.0847,0.0899,0.1012,0.1084,0.1119,0.123,0.1317,0.1367,0.1466,0.1503,0.1559,0.1399,0.1338,0.0873,0.045,0.0048,-0.0207,-0.019,-0.0226,-0.0445,-0.0664,-0.078,-0.0864,-0.0225,-0.0225,-0.0225,-0.0225,0,0.0918,0.095,0.1029,0.1182,0.129,0.1436,0.1566,0.1673,0.1752,0.1835,0.1908,0.1859,0.1414,0.1039,0.0471,0.017,-0.0369,-0.0208,-0.046,-0.0645,-0.0763,-0.0901,-0.0158,-0.0227,-0.0227,-0.0227,-0.0227,-0.0227,0.0967,0.1039,0.1144,0.1295,0.143,0.1618,0.177,0.1928,0.2116,0.2292,0.2208,0.224,0.1646,0.088,0.0406,-0.0377,-0.0427,-0.0589,-0.0771,-0.087,-0.0976,-0.0231,-0.0343,-0.0343,-0.0343,-0.0344,-0.0344,0,0.1033,0.1119,0.1258,0.1443,0.1611,0.1675,0.1926,0.2111,0.2368,0.2558,0.2652,0.245,0.1684,0.0904,-0.0175,-0.0776,-0.1017,-0.1126,-0.1286,-0.1349,-0.0696,-0.068,-0.0838,-0.0838,-0.0837,-0.0837,-0.0837,-0.0837,0.1068,0.1201,0.1278,0.1559,0.1705,0.1967,0.2131,0.241,0.2629,0.2939,0.3053,0.3078,0.2531,0.0412,-0.0955,-0.13,-0.1736,-0.1879,-0.2101,-0.1654,-0.1617,-0.1581,-0.1602,-0.1951,-0.1953,-0.2631,-0.2638,-0.2644]}],[{"header":{"parameterUnit":"m.s-1","parameterCategory":2,"la1":30.2991,"la2":30.254,"lo1":-89.0895,"lo2":-89.0444,"dy":0.0017,"dx":0.0017,"nx":28,"ny":28,"refTime":"2025-03-05T09:00:00:Z","depth":"2","parameterNumber":2,"parameterNumberName":"U-component_of_CURRENTS"},"data":[0,0,0,0,0,0,0,0,0,0,0,0,0,0,0,0,0,0,0,0,0,0,0,0,0,0,0,0,0,0,0,0,0,0,0,0,0,0,0,0,0,0,0,0,0,0,0,0,0,0,0,0,0,0,0,0,0,0,0.3755,0.3755,0,0.3801,0.3802,0.3802,0.3797,0.3796,0.3796,0.3796,0.3804,0.3805,0.3805,0,0,0,0,0,0,0,0,0,0,0,0,0,0.3668,0.3669,0.3755,0.3756,0.3756,0.3801,0.3802,0.3802,0.3797,0.3796,0.3796,0.3796,0.3804,0.3805,0.3805,0,0,0,0,0,0,0,0,0,0,0,0,0,0.3705,0.3669,0.3754,0.3762,0.3764,0.3801,0.3802,0.3802,0.3797,0.3796,0.3796,0.3795,0.3804,0.3805,0.3805,0.3822,0,0,0.3808,0.3808,0,0,0,0,0,0,0,0,0.3703,0.3708,0.376,0.3762,0.3764,0.3796,0.3774,0.3808,0.3797,0.378,0.3796,0.3795,0.3801,0.3802,0.3807,0.3822,0.3823,0.3808,0.3809,0.3809,0.3809,0,0,0,0,0,0,0,0.3701,0.3706,0.3769,0.3761,0.3764,0.3766,0.377,0.3781,0.3789,0.3782,0.3782,0.3794,0.3801,0.3806,0.3807,0.3823,0.3808,0.3809,0.3809,0.381,0.3912,0.3914,0,0,0,0,0,0,0.3703,0.3704,0.3768,0.3771,0.3736,0.3768,0.3773,0.3783,0.379,0.3792,0.3795,0.3794,0.3805,0.3806,0.3807,0.3872,0.3809,0.381,0.381,0.391,0.3912,0.3915,0,0,0,0,0,0,0.3701,0.3708,0.3766,0.3741,0.3749,0.3771,0.3782,0.3784,0.38,0.3801,0.3801,0.3809,0.3805,0.3806,0.3839,0.3871,0.381,0.3811,0.3907,0.391,0.3914,0.3973,0,0,0,0,0,0,0.3698,0.3707,0.3718,0.3742,0.3751,0.3799,0.3783,0.3786,0.3809,0.3809,0.3814,0.3813,0.3804,0.3838,0.384,0.3871,0.3812,0.3904,0.3909,0.3912,0.3968,0.3978,0.3986,0,0,0,0,0,0.3695,0.371,0.3718,0.3726,0.3764,0.3801,0.3806,0.3816,0.3811,0.3825,0.3836,0.3814,0.3865,0.3841,0.3842,0.3874,0.3902,0.3907,0.3912,0.3964,0.3976,0.3986,0,0,0,0,0,0,0.3675,0.3713,0.3721,0.3746,0.3778,0.3801,0.3819,0.3826,0.3846,0.3847,0.3839,0.3841,0.3883,0.3876,0.3848,0.3919,0.3882,0.3887,0.3921,0.3932,0.394,0.3951,0.3812,0,0,0,0,0,0.3678,0.3701,0.3737,0.3759,0.3777,0.3801,0.3818,0.383,0.3851,0.3858,0.3864,0.3879,0.3905,0.3915,0.3932,0.3967,0.3981,0.3991,0.4,0.4007,0.402,0.4074,0.4089,0.3931,0.3931,0.3931,0,0,0.3673,0.3702,0.3711,0.3757,0.3781,0.3815,0.3809,0.3845,0.3875,0.3857,0.3897,0.391,0.3923,0.3966,0.3984,0.3963,0.4064,0.4014,0.402,0.4028,0.4081,0.4096,0.411,0.3934,0.3934,0.3933,0,0,0.3679,0.3706,0.3727,0.376,0.3809,0.3833,0.3848,0.3885,0.3903,0.3946,0.3949,0.3986,0.401,0.4035,0.4048,0.4119,0.4111,0.4123,0.4173,0.4226,0.4239,0.4251,0.4299,0.4314,0.4124,0.4125,0.4125,0,0.367,0.3707,0.3739,0.3774,0.3805,0.3844,0.3877,0.391,0.3952,0.3978,0.3966,0.4042,0.4046,0.4116,0.4142,0.4139,0.4166,0.4126,0.4237,0.4248,0.4259,0.4306,0.4322,0.4128,0.4128,0.4127,0.4127,0,0.3691,0.3728,0.3749,0.3807,0.3844,0.3884,0.3937,0.3979,0.4005,0.4035,0.4108,0.4131,0.4174,0.4188,0.4184,0.4273,0.4267,0.4242,0.4205,0.4279,0.4323,0.4339,0.4133,0.4132,0.4131,0.413,0,0,0.3645,0.3742,0.3748,0.3779,0.3867,0.3891,0.3967,0.4037,0.4094,0.4134,0.4206,0.4255,0.4272,0.4291,0.4303,0.4351,0.445,0.4334,0.4335,0.4374,0.4575,0.4559,0.4574,0.4445,0.4448,0.445,0.4578,0,0.365,0.3709,0.3767,0.3827,0.3861,0.3936,0.4004,0.4074,0.4143,0.4225,0.427,0.4345,0.4311,0.4353,0.4393,0.4448,0.4494,0.4418,0.4504,0.4507,0.4478,0.4593,0.4239,0.4322,0.4593,0.4596,0.4597,0,0.3642,0.3689,0.3741,0.3841,0.3864,0.391,0.4028,0.41,0.4232,0.4298,0.438,0.4425,0.452,0.4477,0.4592,0.4547,0.4567,0.4595,0.4599,0.4575,0.4521,0.4291,0.434,0.4624,0.4622,0.462,0.4618,0,0.3567,0.3665,0.3703,0.3735,0.3856,0.3897,0.397,0.4106,0.4189,0.4357,0.4433,0.4541,0.4609,0.4662,0.4708,0.4666,0.4831,0.4772,0.4775,0.4773,0.4484,0.4453,0.485,0.485,0.4849,0.4849,0.4849,0,0.354,0.3568,0.3667,0.3685,0.3751,0.3848,0.3947,0.4057,0.4222,0.4327,0.4455,0.4565,0.466,0.4752,0.477,0.4841,0.4878,0.482,0.4821,0.4498,0.4468,0.4727,0.4712,0.4854,0.4853,0.4852,0.4851,0,0.3448,0.3516,0.3561,0.3674,0.3713,0.3754,0.3921,0.3995,0.4176,0.4326,0.4386,0.4604,0.4755,0.4832,0.4954,0.4923,0.4992,0.4993,0.4619,0.4574,0.488,0.4866,0.5027,0.5028,0.5029,0.5029,0.503,0,0.3409,0.342,0.3523,0.3545,0.3595,0.3683,0.3749,0.3949,0.4044,0.434,0.4397,0.4623,0.476,0.4957,0.4966,0.5028,0.5056,0.472,0.4578,0.4923,0.4906,0.4891,0.4876,0.4211,0.4205,0.42,0.4196,0,0.3333,0.3364,0.3399,0.3453,0.3504,0.3575,0.3688,0.376,0.3999,0.415,0.4367,0.4519,0.4742,0.469,0.4799,0.4773,0.4689,0.4624,0.5081,0.4242,0.4169,0.4148,0.4157,0.415,0.4155,0.4158,0.416,0.4162,0.3267,0.3267,0.3311,0.335,0.3404,0.3442,0.3459,0.3599,0.3744,0.3922,0.4175,0.4278,0.44,0.4414,0.4321,0.4246,0.4561,0.4345,0.4353,0.4368,0.4271,0.4207,0.4176,0.418,0.4184,0.4188,0.4191,0,0.317,0.3184,0.321,0.3243,0.3231,0.3312,0.3393,0.3371,0.3465,0.3681,0.3841,0.3645,0.3696,0.3782,0.3627,0.3686,0.3558,0.3524,0.3303,0.3358,0.3404,0.3247,0.2885,0.288,0.2875,0.287,0,0,0.3122,0.3092,0.3102,0.3055,0.3072,0.3018,0.3021,0.3022,0.3115,0.3146,0.3195,0.3524,0.371,0.3223,0.3214,0.301,0.3129,0.2898,0.3969,0.3766,0.3803,0.3936,0.3768,0,0,0,0,0]},{"header":{"parameterUnit":"m.s-1","parameterCategory":2,"la1":30.2991,"la2":30.254,"lo1":-89.0895,"lo2":-89.0444,"dy":0.0017,"dx":0.0017,"nx":28,"ny":28,"refTime":"2025-03-05T09:00:00:Z","depth":"2","parameterNumber":3,"parameterNumberName":"V-component_of_CURRENTS"},"data":[0,0,0,0,0,0,0,0,0,0,0,0,0,0,0,0,0,0,0,0,0,0,0,0,0,0,0,0,0,0,0,0,0,0,0,0,0,0,0,0,0,0,0,0,0,0,0,0,0,0,0,0,0,0,0,0,0,0,0.0183,0.0183,0,0.0103,0.0102,0.0101,0.0042,0.0042,0.0042,0.0042,-0.0075,-0.0078,-0.008,0,0,0,0,0,0,0,0,0,0,0,0,0,0.0222,0.0222,0.0183,0.0183,0.0182,0.0103,0.0102,0.0101,0.0042,0.0042,0.0042,0.0042,-0.0074,-0.0077,-0.0081,0,0,0,0,0,0,0,0,0,0,0,0,0,0.0177,0.0222,0.0184,0.0145,0.0141,0.0104,0.0102,0.01,0.0042,0.0042,0.0042,0.0041,-0.0073,-0.0077,-0.0081,-0.01,0,0,-0.0094,-0.0096,0,0,0,0,0,0,0,0,0.018,0.0176,0.0152,0.0148,0.0144,0.0085,0.0073,0.0032,0.0043,0.0077,0.0042,0.0041,-0.0023,-0.0031,-0.0049,-0.0106,-0.0111,-0.0095,-0.0097,-0.0099,-0.01,0,0,0,0,0,0,0,0.0183,0.0178,0.0149,0.0151,0.0146,0.0111,0.0104,0.0065,0.0027,0.0074,0.007,0.0066,-0.0026,-0.0044,-0.0052,-0.0112,-0.0095,-0.0098,-0.0101,-0.0103,-0.0184,-0.0184,0,0,0,0,0,0,0.0203,0.0182,0.0151,0.0147,0.0164,0.0111,0.0103,0.0102,0.0029,0.0018,0.0066,0.0064,-0.0037,-0.0047,-0.0056,-0.0058,-0.0099,-0.0103,-0.0106,-0.0185,-0.0184,-0.0184,0,0,0,0,0,0,0.0204,0.0201,0.0155,0.0164,0.0156,0.0111,0.0109,0.0101,0.0087,0.0024,0.0012,0.0064,-0.0038,-0.005,-0.0079,-0.0064,-0.0105,-0.0109,-0.0185,-0.0185,-0.0184,-0.0079,0,0,0,0,0,0,0.0205,0.0202,0.0207,0.0166,0.0157,0.0147,0.011,0.0099,0.0086,0.0082,0.0017,0.0005,-0.0039,-0.0072,-0.0083,-0.0071,-0.0112,-0.0186,-0.0185,-0.0184,-0.0083,-0.0075,-0.0068,0,0,0,0,0,0.0207,0.0223,0.0208,0.0204,0.0166,0.0148,0.014,0.0104,0.0087,0.0089,0.0046,0.0008,-0.0076,-0.0075,-0.0088,-0.0077,-0.0186,-0.0185,-0.0184,-0.0086,-0.0076,-0.0068,0,0,0,0,0,0,0.0245,0.0218,0.02,0.0207,0.0185,0.014,0.0139,0.0114,0.0081,0.0077,0.0014,-0.0,-0.0021,-0.0064,-0.0062,-0.01,-0.0138,-0.014,-0.0059,-0.005,-0.0043,-0.0015,-0.0116,0,0,0,0,0,0.0256,0.0258,0.0227,0.0232,0.0226,0.0183,0.0171,0.015,0.0116,0.0101,0.0056,0.0008,-0.0029,-0.0049,-0.0091,-0.0109,-0.0156,-0.0112,-0.0105,-0.0098,-0.0085,-0.0144,-0.014,-0.0181,-0.0181,-0.0181,0,0,0.0272,0.0258,0.0258,0.024,0.0218,0.0226,0.0175,0.0169,0.0175,0.0093,0.0086,0.0033,-0.0029,-0.0048,-0.0062,-0.008,-0.0111,-0.0097,-0.009,-0.0081,-0.0143,-0.0139,-0.0135,-0.018,-0.018,-0.0181,0,0,0.0313,0.0294,0.0313,0.0303,0.0284,0.026,0.0266,0.0229,0.0211,0.0195,0.014,0.0101,0.0042,0.0003,-0.0025,-0.0001,-0.0069,-0.0019,0.0043,-0.0014,-0.0011,-0.0009,-0.006,-0.0064,-0.0014,-0.0014,-0.0014,0,0.0334,0.0355,0.0316,0.0336,0.0342,0.0286,0.0317,0.0291,0.0249,0.0244,0.0209,0.0124,0.0069,0.0046,0.0052,0.0017,-0.0026,0.0017,-0.0003,-0.0002,-0.0001,-0.0055,-0.006,-0.0009,-0.0009,-0.001,-0.001,0,0.0392,0.041,0.0423,0.0431,0.043,0.0447,0.0416,0.0406,0.0374,0.0345,0.0312,0.0228,0.0181,0.0151,0.0108,0.0088,0.0052,0.0015,-0.002,0.001,-0.0049,-0.0056,-0.0001,-0.0003,-0.0004,-0.0006,0,0,0.044,0.0462,0.0467,0.0496,0.0487,0.0498,0.0507,0.0504,0.0522,0.0452,0.0459,0.0374,0.0322,0.0286,0.0217,0.0161,0.0121,0.0099,0.0093,0.0059,-0.0002,-0.0022,-0.0033,0.0079,0.0078,0.0077,-0.0043,0,0.0501,0.0567,0.0557,0.0625,0.0662,0.0626,0.0642,0.0628,0.0602,0.0591,0.0491,0.0468,0.0376,0.0356,0.0285,0.0167,0.0107,0.0157,-0.0035,-0.0041,-0.0054,-0.004,-0.0006,-0.011,-0.005,-0.0052,-0.0052,0,0.0568,0.0606,0.0682,0.0735,0.0747,0.0772,0.08,0.0815,0.0777,0.0755,0.0702,0.0622,0.0537,0.0449,0.0259,0.0296,0.0162,0.0056,0.0048,-0.001,-0.0074,-0.0133,-0.0126,-0.0065,-0.0064,-0.0063,-0.0062,0,0.0631,0.0698,0.0766,0.0783,0.0823,0.0849,0.0871,0.0863,0.0905,0.0866,0.0878,0.0749,0.0699,0.0512,0.0294,0.0276,0.0077,0.0021,-0.0127,-0.0131,-0.0158,-0.0163,-0.0116,-0.0116,-0.0116,-0.0115,-0.0115,0,0.0704,0.076,0.0802,0.0839,0.0933,0.0929,0.1021,0.1019,0.104,0.1113,0.0973,0.0985,0.0712,0.0563,0.0341,0.0097,0.011,-0.011,-0.016,-0.0121,-0.012,-0.0128,-0.0128,-0.012,-0.0119,-0.0118,-0.0117,0,0.0763,0.0784,0.0875,0.0935,0.0966,0.1035,0.1142,0.1211,0.1205,0.1294,0.129,0.1165,0.0976,0.069,0.0393,0.0181,-0.0065,-0.0159,-0.009,-0.013,-0.0251,-0.0244,-0.0339,-0.0341,-0.0342,-0.0343,-0.0344,0,0.0798,0.0847,0.0954,0.1023,0.1057,0.1163,0.1246,0.1293,0.1387,0.1419,0.1473,0.1314,0.1246,0.0791,0.0378,-0.0013,-0.0066,-0.0243,-0.0277,-0.0233,-0.0273,-0.0264,-0.0255,-0.028,-0.028,-0.028,-0.028,0,0.0868,0.0899,0.0973,0.1121,0.1225,0.1365,0.149,0.1592,0.1665,0.174,0.1804,0.1749,0.1311,0.092,0.0367,0.0097,-0.018,-0.0261,-0.0236,-0.0218,-0.0184,-0.0221,-0.0213,-0.0283,-0.0283,-0.0283,-0.0283,-0.0282,0.0918,0.0987,0.1087,0.1233,0.1363,0.1543,0.1689,0.1832,0.2007,0.2141,0.2064,0.2,0.1511,0.0821,0.032,-0.021,-0.0184,-0.0363,-0.0359,-0.0356,-0.0317,-0.0286,-0.0398,-0.0398,-0.0398,-0.0399,-0.0399,0,0.098,0.1065,0.1199,0.1376,0.1537,0.1602,0.1841,0.1995,0.2227,0.2328,0.2388,0.1949,0.1478,0.0915,0.0132,-0.033,-0.037,-0.0474,-0.0423,-0.0416,-0.0411,-0.0374,-0.0471,-0.0473,-0.0474,-0.0476,0,0,0.1013,0.114,0.1214,0.1485,0.163,0.1876,0.2032,0.2253,0.2389,0.2518,0.249,0.2365,0.1668,0.1094,0.0441,-0.0013,-0.0101,-0.0101,0.0009,0.0155,0.0165,-0.0296,-0.0225,0,0,0,0,0]}],[{"header":{"parameterUnit":"m.s-1","parameterCategory":2,"la1":30.2991,"la2":30.254,"lo1":-89.0895,"lo2":-89.0444,"dy":0.0017,"dx":0.0017,"nx":28,"ny":28,"refTime":"2025-03-05T09:00:00:Z","depth":"4","parameterNumber":2,"parameterNumberName":"U-component_of_CURRENTS"},"data":[0,0,0,0,0,0,0,0,0,0,0,0,0,0,0,0,0,0,0,0,0,0,0,0,0,0,0,0,0,0,0,0,0,0,0,0,0,0,0,0,0,0,0,0,0,0,0,0,0,0,0,0,0,0,0,0,0,0,0.2443,0.2444,0,0.2542,0.2542,0.2543,0.2624,0.2625,0.2626,0.2627,0.2745,0.2747,0.2749,0,0,0,0,0,0,0,0,0,0,0,0,0,0.2316,0.2318,0.2443,0.2444,0.2446,0.2541,0.2542,0.2544,0.2624,0.2625,0.2626,0.2628,0.2744,0.2746,0.2749,0,0,0,0,0,0,0,0,0,0,0,0,0,0.2386,0.2318,0.2442,0.2499,0.2506,0.2541,0.2542,0.2544,0.2623,0.2625,0.2627,0.2628,0.2743,0.2746,0.2749,0.2736,0,0,0.2759,0.276,0,0,0,0,0,0,0,0,0.2382,0.239,0.2489,0.2495,0.2503,0.2575,0.2541,0.261,0.2623,0.2575,0.2627,0.2629,0.269,0.2698,0.2708,0.2741,0.2746,0.2759,0.2761,0.2762,0.2763,0,0,0,0,0,0,0,0.2377,0.2386,0.2479,0.2491,0.2499,0.2518,0.2529,0.2554,0.262,0.258,0.2587,0.2602,0.2694,0.2705,0.2712,0.2748,0.2759,0.2762,0.2764,0.2765,0.2942,0.2944,0,0,0,0,0,0,0.2369,0.2382,0.2476,0.2482,0.2448,0.2519,0.2532,0.2547,0.262,0.2633,0.26,0.2605,0.2699,0.2708,0.2716,0.285,0.2762,0.2765,0.2767,0.2939,0.2942,0.2945,0,0,0,0,0,0,0.2366,0.2377,0.2472,0.2436,0.245,0.252,0.2537,0.2549,0.2614,0.2636,0.2649,0.266,0.27,0.2712,0.2794,0.285,0.2767,0.277,0.2936,0.294,0.2944,0.3025,0,0,0,0,0,0,0.2362,0.2375,0.2409,0.2436,0.2452,0.2527,0.2536,0.2549,0.2619,0.2628,0.269,0.27,0.2703,0.2789,0.2797,0.2853,0.2772,0.2932,0.2938,0.2943,0.3019,0.3031,0.3042,0,0,0,0,0,0.2357,0.2386,0.2409,0.2422,0.2488,0.2529,0.2539,0.2591,0.2621,0.2655,0.2708,0.2701,0.2828,0.2794,0.2802,0.2861,0.293,0.2936,0.2942,0.3014,0.3029,0.3042,0,0,0,0,0,0,0.2353,0.2398,0.2424,0.2469,0.2514,0.2544,0.259,0.262,0.2687,0.2715,0.2732,0.2746,0.2838,0.284,0.2802,0.2929,0.2879,0.2887,0.2931,0.2945,0.2957,0.2957,0.2775,0,0,0,0,0,0.2365,0.2404,0.2444,0.2489,0.2514,0.2562,0.2597,0.2633,0.2682,0.2716,0.2761,0.2813,0.286,0.2898,0.2934,0.3001,0.3005,0.3046,0.3058,0.3068,0.3076,0.3129,0.3145,0.2966,0.2966,0.2966,0,0,0.2377,0.241,0.2435,0.2492,0.2534,0.2578,0.2589,0.2657,0.2709,0.2717,0.2821,0.2858,0.2888,0.2967,0.3009,0.2984,0.3125,0.3076,0.3084,0.3087,0.3137,0.3154,0.3169,0.297,0.297,0.2969,0,0,0.24,0.2452,0.2486,0.2527,0.2599,0.2628,0.2658,0.2722,0.2775,0.2861,0.2887,0.2962,0.3034,0.3069,0.3091,0.319,0.3184,0.3213,0.3276,0.3328,0.3343,0.3356,0.3392,0.3408,0.3221,0.3221,0.3221,0,0.2419,0.2464,0.2505,0.2547,0.2592,0.2655,0.2702,0.2757,0.2846,0.2894,0.2912,0.3049,0.3078,0.3167,0.321,0.3216,0.3242,0.3216,0.3342,0.3355,0.3366,0.3401,0.3417,0.3226,0.3225,0.3225,0.3224,0,0.2447,0.2507,0.2535,0.2608,0.2659,0.2718,0.2787,0.2864,0.2937,0.2985,0.311,0.3161,0.324,0.3268,0.3273,0.3381,0.3372,0.3347,0.33,0.3389,0.342,0.3435,0.3232,0.3231,0.3229,0.3228,0,0,0.2427,0.2533,0.2551,0.2595,0.2702,0.2737,0.2843,0.2937,0.302,0.3115,0.3218,0.331,0.3354,0.3383,0.3412,0.3465,0.3574,0.3456,0.3457,0.3482,0.3695,0.3479,0.3474,0.3579,0.3582,0.3584,0.3686,0,0.2446,0.2519,0.2579,0.2671,0.2713,0.2809,0.2898,0.2997,0.3099,0.3215,0.3291,0.3404,0.3393,0.3464,0.3513,0.3569,0.3618,0.3549,0.3614,0.3616,0.3403,0.3485,0.3594,0.3697,0.37,0.3703,0.3704,0,0.2445,0.2499,0.2581,0.27,0.2733,0.2807,0.2963,0.3054,0.3217,0.3307,0.3425,0.3493,0.3615,0.3587,0.371,0.3675,0.3697,0.372,0.3724,0.35,0.3426,0.3589,0.3731,0.3729,0.3727,0.3725,0.3724,0,0.2377,0.2499,0.2566,0.2606,0.2749,0.2826,0.2923,0.3086,0.3182,0.3387,0.3477,0.3614,0.3709,0.3766,0.3818,0.379,0.3931,0.3885,0.3705,0.369,0.3818,0.3802,0.3959,0.3959,0.3959,0.3959,0.3958,0,0.2343,0.2405,0.2548,0.2581,0.2686,0.2803,0.2944,0.307,0.3256,0.3362,0.3525,0.362,0.3764,0.3849,0.3869,0.383,0.397,0.3727,0.3703,0.3851,0.3839,0.3828,0.3812,0.3962,0.3962,0.3961,0.396,0,0.2253,0.2349,0.2431,0.2592,0.2654,0.2731,0.2942,0.3026,0.3234,0.3382,0.3457,0.3665,0.3778,0.3875,0.3986,0.3871,0.3878,0.3827,0.3999,0.3982,0.3591,0.3579,0.3627,0.3621,0.3615,0.361,0.3606,0,0.2208,0.2242,0.2416,0.2464,0.2549,0.2688,0.2776,0.3,0.3086,0.337,0.3407,0.3613,0.3718,0.369,0.3822,0.3844,0.3796,0.3764,0.365,0.3586,0.356,0.3556,0.3551,0.3597,0.3595,0.3594,0.3592,0,0.212,0.2203,0.2266,0.2368,0.2465,0.2555,0.2699,0.2744,0.2986,0.3197,0.3282,0.3355,0.3473,0.3551,0.3598,0.3606,0.3765,0.3703,0.3713,0.3605,0.355,0.3528,0.353,0.3573,0.3575,0.3577,0.3578,0,0.2061,0.2079,0.2171,0.2239,0.235,0.2378,0.2478,0.2566,0.2684,0.298,0.3009,0.3228,0.3434,0.343,0.348,0.3471,0.3409,0.3275,0.3306,0.333,0.3185,0.3068,0.2931,0,0,0,0,0,0.1983,0.1975,0.2029,0.2082,0.2179,0.2238,0.2399,0.2499,0.2729,0.2706,0.2848,0.2948,0.3036,0.3163,0.3093,0.3359,0.3426,0.3264,0.3287,0.3462,0.3485,0.3343,0,0,0,0,0,0,0.1925,0.197,0.1971,0.1933,0.1936,0.2018,0.2105,0.2256,0.2257,0.2506,0.257,0.2764,0.2896,0.3039,0.3034,0.3071,0.3022,0.3412,0.3404,0.3449,0.347,0.3488,0.335,0,0,0,0,0]},{"header":{"parameterUnit":"m.s-1","parameterCategory":2,"la1":30.2991,"la2":30.254,"lo1":-89.0895,"lo2":-89.0444,"dy":0.0017,"dx":0.0017,"nx":28,"ny":28,"refTime":"2025-03-05T09:00:00:Z","depth":"4","parameterNumber":3,"parameterNumberName":"V-component_of_CURRENTS"},"data":[0,0,0,0,0,0,0,0,0,0,0,0,0,0,0,0,0,0,0,0,0,0,0,0,0,0,0,0,0,0,0,0,0,0,0,0,0,0,0,0,0,0,0,0,0,0,0,0,0,0,0,0,0,0,0,0,0,0,0.0098,0.0098,0,0.0045,0.0045,0.0044,0.0005,0.0004,0.0004,0.0004,-0.0087,-0.0089,-0.0092,0,0,0,0,0,0,0,0,0,0,0,0,0,0.0121,0.0121,0.0098,0.0098,0.0097,0.0045,0.0045,0.0044,0.0005,0.0004,0.0004,0.0004,-0.0086,-0.0089,-0.0092,0,0,0,0,0,0,0,0,0,0,0,0,0,0.0093,0.0121,0.0098,0.0073,0.007,0.0046,0.0045,0.0043,0.0005,0.0004,0.0004,0.0004,-0.0085,-0.0089,-0.0092,-0.0108,0,0,-0.0102,-0.0104,0,0,0,0,0,0,0,0,0.0094,0.0092,0.0077,0.0074,0.0071,0.0033,0.002,-0.0008,0.0005,0.0027,0.0004,0.0004,-0.0049,-0.0055,-0.0067,-0.0112,-0.0116,-0.0103,-0.0105,-0.0106,-0.0107,0,0,0,0,0,0,0,0.0096,0.0093,0.0075,0.0077,0.0073,0.0049,0.0045,0.0014,-0.0011,0.0025,0.0023,0.002,-0.0051,-0.0064,-0.0069,-0.0117,-0.0103,-0.0106,-0.0108,-0.0109,-0.0177,-0.0177,0,0,0,0,0,0,0.0109,0.0096,0.0077,0.0074,0.0085,0.0049,0.0045,0.0044,-0.001,-0.0017,0.002,0.0019,-0.0058,-0.0065,-0.0073,-0.0076,-0.0106,-0.0109,-0.0111,-0.0178,-0.0177,-0.0177,0,0,0,0,0,0,0.011,0.0108,0.0079,0.0085,0.008,0.005,0.0049,0.0043,0.0035,-0.0013,-0.0022,0.0019,-0.0058,-0.0068,-0.0091,-0.008,-0.0111,-0.0114,-0.0178,-0.0177,-0.0177,-0.0094,0,0,0,0,0,0,0.0111,0.0109,0.0114,0.0086,0.008,0.0075,0.0049,0.0042,0.0034,0.0031,-0.0017,-0.0026,-0.0059,-0.0086,-0.0095,-0.0086,-0.0117,-0.0178,-0.0178,-0.0177,-0.0097,-0.0091,-0.0086,0,0,0,0,0,0.0112,0.0124,0.0115,0.0112,0.0088,0.0075,0.007,0.0046,0.0035,0.0037,0.0005,-0.0024,-0.009,-0.0088,-0.0099,-0.009,-0.0178,-0.0178,-0.0177,-0.01,-0.0092,-0.0086,0,0,0,0,0,0,0.0139,0.012,0.0109,0.0116,0.0101,0.007,0.007,0.0053,0.003,0.0028,-0.002,-0.0031,-0.0048,-0.0082,-0.0079,-0.011,-0.014,-0.0141,-0.0077,-0.0071,-0.0065,-0.0042,-0.012,0,0,0,0,0,0.0148,0.015,0.0128,0.0133,0.0129,0.0101,0.0093,0.0079,0.0055,0.0044,0.0011,-0.0026,-0.0056,-0.0071,-0.0104,-0.0119,-0.0158,-0.0122,-0.0116,-0.0111,-0.0101,-0.0152,-0.0149,-0.0175,-0.0175,-0.0175,0,0,0.016,0.015,0.0151,0.0139,0.0125,0.0133,0.0096,0.0093,0.0099,0.0037,0.0035,-0.0007,-0.0056,-0.0071,-0.0083,-0.0096,-0.0125,-0.0111,-0.0106,-0.0098,-0.0151,-0.0148,-0.0146,-0.0175,-0.0175,-0.0175,0,0,0.019,0.0178,0.0192,0.0186,0.0174,0.0159,0.0162,0.0138,0.0126,0.0116,0.0074,0.0043,-0.0002,-0.0033,-0.0055,-0.0039,-0.0094,-0.0053,-0.0004,-0.0053,-0.0051,-0.005,-0.0095,-0.0098,-0.0049,-0.0049,-0.0049,0,0.0207,0.0223,0.0195,0.021,0.0217,0.0177,0.0202,0.0184,0.0155,0.0153,0.0127,0.0061,0.0018,-0.0002,0.0003,-0.0025,-0.0061,-0.0022,-0.0044,-0.0044,-0.0044,-0.0091,-0.0096,-0.0045,-0.0045,-0.0045,-0.0046,0,0.0249,0.0265,0.0275,0.0283,0.0285,0.0299,0.0278,0.0272,0.0251,0.0232,0.0206,0.014,0.0105,0.008,0.0047,0.0028,-0.0001,-0.0031,-0.0057,-0.0036,-0.0087,-0.0094,-0.0039,-0.004,-0.0041,-0.0042,0,0,0.0287,0.0303,0.0308,0.0333,0.0329,0.0339,0.0349,0.035,0.0367,0.0314,0.0322,0.0254,0.0216,0.0187,0.0132,0.0084,0.0047,0.0035,0.0031,-0.0,-0.006,-0.0066,-0.0075,0.0013,0.0012,0.0012,-0.0094,0,0.0333,0.0382,0.0377,0.0433,0.046,0.0438,0.0454,0.0447,0.0431,0.0425,0.0346,0.0331,0.0258,0.0245,0.0184,0.0086,0.0034,0.0079,-0.0083,-0.0088,-0.0089,-0.0081,0.001,-0.0099,-0.0101,-0.0102,-0.0103,0,0.0382,0.041,0.047,0.0517,0.0528,0.0553,0.0584,0.0598,0.0573,0.0559,0.0518,0.0456,0.0386,0.0317,0.0156,0.0189,0.0077,-0.0012,-0.0019,-0.0056,-0.0106,-0.0128,-0.0116,-0.0115,-0.0114,-0.0113,-0.0112,0,0.0427,0.0483,0.0537,0.0552,0.0587,0.0616,0.0639,0.064,0.0677,0.0653,0.0666,0.0559,0.052,0.0363,0.0182,0.017,-0.0004,-0.0047,-0.0163,-0.0165,-0.0165,-0.0165,-0.0165,-0.0165,-0.0165,-0.0164,-0.0164,0,0.0477,0.0526,0.0566,0.0596,0.0677,0.0681,0.0765,0.0768,0.0792,0.0848,0.0747,0.0747,0.053,0.0403,0.0218,0.0017,0.0021,-0.0149,-0.019,-0.0128,-0.0123,-0.017,-0.0169,-0.0168,-0.0168,-0.0167,-0.0166,0,0.0515,0.0537,0.0611,0.0667,0.0702,0.0761,0.0866,0.0924,0.0932,0.0999,0.0999,0.0894,0.0728,0.0499,0.0246,0.0085,-0.0121,-0.0197,-0.01,-0.0135,-0.0261,-0.0255,-0.0335,-0.0336,-0.0337,-0.0338,-0.0339,0,0.0534,0.0573,0.0671,0.0732,0.0766,0.0865,0.094,0.0992,0.1062,0.1089,0.1119,0.0991,0.0887,0.054,0.0277,-0.0073,-0.0134,-0.0245,-0.0271,-0.0245,-0.0278,-0.027,-0.0263,-0.034,-0.034,-0.0341,-0.0341,0,0.0572,0.0607,0.0666,0.0793,0.0888,0.1009,0.1117,0.1181,0.1243,0.1252,0.1234,0.1052,0.0861,0.0562,0.0294,0.0035,-0.0176,-0.0256,-0.0257,-0.0282,-0.0252,-0.0282,-0.0274,-0.0344,-0.0343,-0.0343,-0.0343,0,0.0601,0.065,0.0733,0.085,0.0978,0.1108,0.1169,0.125,0.1317,0.1338,0.1328,0.1117,0.0995,0.0619,0.037,0.0118,0.0035,-0.0064,-0.0077,-0.0077,0.0018,0.0095,0.0083,0,0,0,0,0,0.0621,0.068,0.0788,0.0917,0.1049,0.1134,0.1267,0.1316,0.1376,0.1382,0.1363,0.1187,0.0828,0.067,0.0418,0.0316,-0.0031,0.0008,-0.0157,-0.0361,-0.0357,-0.0292,0,0,0,0,0,0,0.063,0.0722,0.0782,0.0953,0.1059,0.1217,0.1309,0.1357,0.1358,0.1373,0.1192,0.1109,0.0759,0.098,0.0412,0.0334,0.019,-0.0157,-0.0163,-0.0363,-0.036,-0.0357,-0.0289,0,0,0,0,0]}]]